Stündliche Wetter Holovenka

Heute, 21 Juni, Montag

Zeit Temperatur Niederschläge Wind Luftdruck Luftfeuchtigkeit
00:00 +19°C° 0 mm 3 m/S 741 mmHg 94%
01:00 +19°C° 0 mm 2 m/S 741 mmHg 95%
02:00 +19°C° 0 mm 2 m/S 740 mmHg 96%
03:00 +19°C° 0 mm 2 m/S 740 mmHg 96%
04:00 +19°C° 0 mm 2 m/S 740 mmHg 96%
05:00 +19°C° 0 mm 2 m/S 740 mmHg 96%
06:00 +20°C° 0 mm 2 m/S 740 mmHg 91%
07:00 +22°C° 0 mm 3 m/S 740 mmHg 86%
08:00 +24°C° 0 mm 3 m/S 740 mmHg 81%
09:00 +25°C° 0 mm 3 m/S 740 mmHg 77%
10:00 +26°C° 0 mm 3 m/S 740 mmHg 72%
11:00 +27°C° 0 mm 3 m/S 740 mmHg 68%
12:00 +28°C° 0.1 mm 3 m/S 740 mmHg 67%
13:00 +28°C° 0.1 mm 3 m/S 740 mmHg 67%
14:00 +28°C° 0 mm 3 m/S 740 mmHg 66%
15:00 +28°C° 0.1 mm 3 m/S 740 mmHg 69%
16:00 +28°C° 0.1 mm 3 m/S 740 mmHg 72%
17:00 +27°C° 0.1 mm 3 m/S 740 mmHg 74%
18:00 +26°C° 0.1 mm 3 m/S 740 mmHg 79%
19:00 +25°C° 0.1 mm 2 m/S 740 mmHg 84%
20:00 +23°C° 0.1 mm 2 m/S 740 mmHg 89%
21:00 +23°C° 0 mm 2 m/S 740 mmHg 90%
22:00 +21°C° 0 mm 2 m/S 740 mmHg 91%
23:00 +20°C° 0 mm 2 m/S 740 mmHg 92%

Morgen, 22 Juni, Dienstag

Zeit Temperatur Niederschläge Wind Luftdruck Luftfeuchtigkeit
00:00 +20°C° 0 mm 2 m/S 740 mmHg 91%
01:00 +20°C° 0 mm 1 m/S 740 mmHg 91%
02:00 +20°C° 0 mm 1 m/S 741 mmHg 91%
03:00 +20°C° 0 mm 1 m/S 741 mmHg 91%
04:00 +20°C° 0 mm 1 m/S 741 mmHg 91%
05:00 +20°C° 0 mm 1 m/S 741 mmHg 91%
06:00 +21°C° 0 mm 2 m/S 741 mmHg 88%
07:00 +24°C° 0 mm 2 m/S 741 mmHg 85%
08:00 +25°C° 0 mm 3 m/S 741 mmHg 81%
09:00 +26°C° 0 mm 3 m/S 741 mmHg 75%
10:00 +27°C° 0 mm 3 m/S 741 mmHg 69%
11:00 +29°C° 0 mm 4 m/S 741 mmHg 63%
12:00 +29°C° 0 mm 4 m/S 741 mmHg 59%
13:00 +29°C° 0 mm 4 m/S 741 mmHg 56%
14:00 +29°C° 0 mm 4 m/S 741 mmHg 53%
15:00 +29°C° 0 mm 4 m/S 741 mmHg 57%
16:00 +28°C° 0 mm 4 m/S 741 mmHg 62%
17:00 +28°C° 0 mm 4 m/S 741 mmHg 67%
18:00 +26°C° 0 mm 3 m/S 741 mmHg 72%
19:00 +25°C° 0 mm 3 m/S 741 mmHg 78%
20:00 +23°C° 0 mm 2 m/S 741 mmHg 83%
21:00 +21°C° 0 mm 2 m/S 741 mmHg 85%
22:00 +21°C° 0 mm 2 m/S 741 mmHg 86%
23:00 +20°C° 0 mm 2 m/S 741 mmHg 88%

übermorgen, 23 Juni, Mittwoch

Zeit Temperatur Niederschläge Wind Luftdruck Luftfeuchtigkeit
00:00 +20°C° 0 mm 2 m/S 741 mmHg 88%
01:00 +19°C° 0 mm 2 m/S 742 mmHg 89%
02:00 +19°C° 0 mm 2 m/S 742 mmHg 89%
03:00 +19°C° 0 mm 2 m/S 742 mmHg 89%
04:00 +19°C° 0 mm 2 m/S 742 mmHg 88%
05:00 +19°C° 0 mm 2 m/S 742 mmHg 87%
06:00 +21°C° 0 mm 2 m/S 742 mmHg 83%
07:00 +23°C° 0 mm 2 m/S 742 mmHg 79%
08:00 +25°C° 0 mm 2 m/S 742 mmHg 74%
09:00 +26°C° 0 mm 2 m/S 742 mmHg 70%
10:00 +28°C° 0 mm 2 m/S 742 mmHg 67%
11:00 +29°C° 0 mm 2 m/S 743 mmHg 63%
12:00 +30°C° 0 mm 2 m/S 742 mmHg 61%
13:00 +30°C° 0 mm 2 m/S 742 mmHg 59%
14:00 +31°C° 0 mm 2 m/S 742 mmHg 57%
15:00 +31°C° 0 mm 2 m/S 742 mmHg 61%
16:00 +30°C° 0 mm 3 m/S 742 mmHg 65%
17:00 +30°C° 0 mm 3 m/S 742 mmHg 68%
18:00 +28°C° 0 mm 3 m/S 742 mmHg 74%
19:00 +27°C° 0 mm 3 m/S 742 mmHg 80%
20:00 +25°C° 0 mm 2 m/S 742 mmHg 86%
21:00 +24°C° 0 mm 2 m/S 742 mmHg 88%
22:00 +23°C° 0 mm 2 m/S 743 mmHg 90%
23:00 +23°C° 0 mm 2 m/S 743 mmHg 92%

24 Juni, Donnerstag

Zeit Temperatur Niederschläge Wind Luftdruck Luftfeuchtigkeit
00:00 +21°C° 0 mm 2 m/S 743 mmHg 92%
01:00 +21°C° 0 mm 2 m/S 743 mmHg 93%
02:00 +21°C° 0 mm 2 m/S 743 mmHg 93%
03:00 +21°C° 0 mm 2 m/S 743 mmHg 92%
04:00 +21°C° 0 mm 2 m/S 743 mmHg 92%
05:00 +21°C° 0 mm 2 m/S 743 mmHg 91%
06:00 +23°C° 0 mm 2 m/S 743 mmHg 87%
07:00 +25°C° 0 mm 2 m/S 743 mmHg 82%
08:00 +27°C° 0 mm 2 m/S 743 mmHg 77%
09:00 +28°C° 0 mm 2 m/S 743 mmHg 73%
10:00 +29°C° 0 mm 2 m/S 743 mmHg 69%
11:00 +30°C° 0 mm 3 m/S 743 mmHg 65%
12:00 +31°C° 0 mm 2 m/S 743 mmHg 62%
13:00 +31°C° 0 mm 2 m/S 743 mmHg 59%
14:00 +32°C° 0 mm 2 m/S 743 mmHg 56%
15:00 +32°C° 0 mm 2 m/S 743 mmHg 57%
16:00 +32°C° 0 mm 1 m/S 743 mmHg 57%
17:00 +32°C° 0 mm 1 m/S 743 mmHg 58%
18:00 +30°C° 0.1 mm 1 m/S 743 mmHg 64%
19:00 +29°C° 0.1 mm 1 m/S 742 mmHg 70%
20:00 +27°C° 0.1 mm 1 m/S 742 mmHg 77%
21:00 +26°C° 0.3 mm 1 m/S 742 mmHg 79%
22:00 +25°C° 0.3 mm 1 m/S 742 mmHg 82%
23:00 +24°C° 0.3 mm 1 m/S 742 mmHg 84%

25 Juni, Freitag

Zeit Temperatur Niederschläge Wind Luftdruck Luftfeuchtigkeit
00:00 +24°C° 0.1 mm 1 m/S 742 mmHg 86%
01:00 +23°C° 0.1 mm 1 m/S 742 mmHg 87%
02:00 +23°C° 0.1 mm 1 m/S 742 mmHg 89%
03:00 +21°C° 0 mm 0 m/S 742 mmHg 89%
04:00 +21°C° 0 mm 0 m/S 742 mmHg 88%
05:00 +21°C° 0 mm 0 m/S 742 mmHg 88%
06:00 +24°C° 0 mm 1 m/S 742 mmHg 85%
07:00 +26°C° 0 mm 1 m/S 742 mmHg 81%
08:00 +27°C° 0 mm 2 m/S 742 mmHg 77%
09:00 +28°C° 0 mm 3 m/S 742 mmHg 72%
10:00 +29°C° 0 mm 3 m/S 742 mmHg 67%
11:00 +30°C° 0 mm 3 m/S 743 mmHg 62%
12:00 +31°C° 0 mm 3 m/S 742 mmHg 59%
13:00 +31°C° 0 mm 3 m/S 742 mmHg 56%
14:00 +33°C° 0 mm 3 m/S 742 mmHg 54%
15:00 +31°C° 0 mm 3 m/S 742 mmHg 57%
16:00 +31°C° 0 mm 3 m/S 742 mmHg 60%
17:00 +31°C° 0 mm 2 m/S 742 mmHg 63%
18:00 +29°C° 0 mm 3 m/S 742 mmHg 68%
19:00 +27°C° 0 mm 3 m/S 741 mmHg 74%
20:00 +26°C° 0 mm 3 m/S 741 mmHg 79%
21:00 +25°C° 0 mm 3 m/S 741 mmHg 81%
22:00 +24°C° 0 mm 2 m/S 741 mmHg 83%
23:00 +23°C° 0 mm 2 m/S 741 mmHg 84%

26 Juni, Samstag

Zeit Temperatur Niederschläge Wind Luftdruck Luftfeuchtigkeit
00:00 +23°C° 0 mm 2 m/S 741 mmHg 85%
01:00 +21°C° 0 mm 2 m/S 741 mmHg 86%
02:00 +22°C° 0 mm 1 m/S 741 mmHg 87%
03:00 +22°C° 0 mm 1 m/S 741 mmHg 86%
04:00 +22°C° 0 mm 1 m/S 741 mmHg 86%
05:00 +22°C° 0 mm 1 m/S 741 mmHg 85%
06:00 +24°C° 0 mm 1 m/S 741 mmHg 81%
07:00 +25°C° 0 mm 1 m/S 741 mmHg 77%
08:00 +27°C° 0 mm 2 m/S 742 mmHg 74%
09:00 +28°C° 0 mm 1 m/S 742 mmHg 70%
10:00 +29°C° 0 mm 1 m/S 742 mmHg 66%
11:00 +30°C° 0 mm 1 m/S 742 mmHg 63%
12:00 +30°C° 0 mm 1 m/S 742 mmHg 60%
13:00 +31°C° 0 mm 1 m/S 742 mmHg 57%
14:00 +32°C° 0 mm 1 m/S 741 mmHg 54%
15:00 +31°C° 0.2 mm 2 m/S 741 mmHg 60%
16:00 +30°C° 0.2 mm 3 m/S 741 mmHg 66%
17:00 +29°C° 0.2 mm 4 m/S 740 mmHg 71%
18:00 +26°C° 0.9 mm 4 m/S 740 mmHg 78%
19:00 +23°C° 0.9 mm 4 m/S 741 mmHg 84%
20:00 +21°C° 0.9 mm 3 m/S 741 mmHg 91%
21:00 +20°C° 0.9 mm 3 m/S 741 mmHg 92%
22:00 +20°C° 0.9 mm 2 m/S 741 mmHg 92%
23:00 +20°C° 0.9 mm 1 m/S 741 mmHg 93%
Mehr zeigen

Wir brauchen deine Erlaubnis

Meteoprog und unser Service Anbieter werden persönliche Daten aufbewahren, so wie Cookies, Geräte Bezeichnung oder ähnliche Technologien von deinem Gerät und Prozess, so wie Persönliche Daten Inhalte und Werbungen, genauso wie social Media und den Verkehr zu analysieren.

  • Aufbewahrung und/oder Zugang zu deiner Geräte Informationen.

    Cookies, Geräte Bezeichnung oder andere Informationen, können aufbewahrt oder Zugang zu deinem Gerät erhalten, für den Grund, der oben angegeben wird.

  • Personalisierte Werbung und Inhalte, Messungen, Einblick in das Publikum und Produkt Entwicklung.

    Werbungen und Inhalte können personalisiert werden, basierend auf ein Profil. Mehr Daten können besser personalisierte Werbungen und Inhalte hinzufügen. Werbung und Inhalte können gezeigt und gemessen werden. Einblicke über das Publikum, welche die Werbung gesehen haben und den Inhalt, können abgeleitet werden. So wie Daten können genutzt werden, um es zu verbessern oder die Benutzer Erfahrung zu verbessern das System und die Software.

Wenn du “Ich stimme zu” klickst, erlaubst du uns, die Cookies zu benutzen die Geräte Bezeichnung, den Web oder ähnliche Technologien zu benutzen. Deine Settings, können in deinem Gerät bei deinem Browser geändert werden.

Für den bestimmten Zweck, berechtigten Interessen beruhen darauf, mehr als auf den Inhalt. Du kannst mehr darüber in unseren Privaten und Cookie Politik lesen.